Idabel, OK

12:46 PM CDT on June 25, 2017 (GMT -0500)
Idabel

Weather History for K4O4 - May, 2014

Change the Weather History Date:

Sunday, May 11, 2014

  Actual Average (KPRX) Record (KPRX)
Temperature  
Mean Temperature 78 °F -  
Max Temperature 87 °F 78 °F 87 °F (2000)
Min Temperature 69 °F 59 °F 50 °F (1997)
Cooling Degree Days 13    
Growing Degree Days 28 (Base 50)    
Moisture  
Dew Point 68 °F    
Average Humidity 74    
Maximum Humidity 94    
Minimum Humidity 49    
Precipitation  
Precipitation 0.00 in - - ()
Sea Level Pressure  
Sea Level Pressure 29.84 in    
Wind  
Wind Speed 10 mph (SSE)    
Max Wind Speed 21 mph    
Max Gust Speed 24 mph    
Visibility 10 miles    
Events      
Averages and records for this station are not official NWS values.
T = Trace of Precipitation, MM = Missing Value Source: NWS Daily Summary

Daily Weather History Graph

Daily Weather History Graph

Search for Another Location

Airport or City:

Trip Planner

Search our weather history database for the weather conditions in past years. The results will help you decide how hot, cold, wet, or windy it might be!

Date:

Astronomy

May. 11, 2014 Rise Set
Actual Time 6:21 AM CDT 8:10 PM CDT
Civil Twilight 5:53 AM CDT 8:38 PM CDT
Nautical Twilight 5:20 AM CDT 9:11 PM CDT
Astronomical Twilight 4:45 AM CDT 9:46 PM CDT
Moon 5:15 PM CDT (5/11) 4:17 AM CDT (5/11)
Length of Visible Light 14h 44m
Length of Day
13h 49m
Waxing Gibbous, 89% of the Moon is Illuminated
May 11
Waxing Gibbous
May 14
Full
May 21
Last Quarter
May 28
New
Jun 5
First Quarter

Hourly Weather History & Observations

Time (CDT) Temp. Heat Index Dew Point Humidity Pressure Visibility Wind Dir Wind Speed Gust Speed Precip Events Conditions
12:01 AM 73.4 °F - 68.0 °F 83% 29.87 in 10.0 mi SE 8.1 mph - N/A   Scattered Clouds
12:21 AM 73.4 °F - 68.0 °F 83% 29.87 in 10.0 mi SE 10.4 mph - N/A   Mostly Cloudy
12:41 AM 73.4 °F - 68.0 °F 83% 29.87 in 10.0 mi SE 10.4 mph - N/A   Scattered Clouds
1:01 AM 73.4 °F - 68.0 °F 83% 29.87 in 10.0 mi SE 9.2 mph - N/A   Scattered Clouds
1:21 AM 73.4 °F - 68.0 °F 83% 29.87 in 10.0 mi SE 9.2 mph - N/A   Clear
1:41 AM 71.6 °F - 68.0 °F 88% 29.87 in 10.0 mi SE 6.9 mph - N/A   Clear
2:01 AM 71.6 °F - 68.0 °F 88% 29.87 in 10.0 mi SE 6.9 mph - N/A   Clear
2:21 AM 71.6 °F - 68.0 °F 88% 29.86 in 10.0 mi SE 6.9 mph - N/A   Clear
2:41 AM 71.6 °F - 66.2 °F 83% 29.85 in 10.0 mi SE 6.9 mph - N/A   Clear
3:01 AM 71.6 °F - 68.0 °F 88% 29.85 in 10.0 mi SE 9.2 mph - N/A   Clear
3:22 AM 71.6 °F - 68.0 °F 88% 29.85 in 10.0 mi SE 9.2 mph - N/A   Clear
3:41 AM 71.6 °F - 68.0 °F 88% 29.85 in 10.0 mi SE 8.1 mph - N/A   Clear
4:21 AM 71.6 °F - 68.0 °F 88% 29.86 in 10.0 mi SSE 10.4 mph 16.1 mph N/A   Overcast
4:41 AM 71.6 °F - 68.0 °F 88% 29.85 in 10.0 mi SE 9.2 mph - N/A   Mostly Cloudy
5:01 AM 71.6 °F - 68.0 °F 88% 29.85 in 7.0 mi SE 8.1 mph - N/A   Scattered Clouds
5:21 AM 69.8 °F - 66.2 °F 88% 29.85 in 7.0 mi SE 8.1 mph - N/A   Scattered Clouds
5:41 AM 71.6 °F - 68.0 °F 88% 29.85 in 7.0 mi SE 9.2 mph - N/A   Mostly Cloudy
6:01 AM 71.6 °F - 68.0 °F 88% 29.85 in 7.0 mi SE 8.1 mph - N/A   Overcast
6:21 AM 71.6 °F - 68.0 °F 88% 29.86 in 7.0 mi SE 9.2 mph - N/A   Overcast
6:41 AM 71.6 °F - 68.0 °F 88% 29.87 in 7.0 mi SE 8.1 mph - N/A   Overcast
7:21 AM 71.6 °F - 69.8 °F 94% 29.88 in 7.0 mi SE 9.2 mph - N/A   Overcast
7:41 AM 71.6 °F - 69.8 °F 94% 29.88 in 7.0 mi SE 6.9 mph - N/A   Overcast
8:01 AM 73.4 °F - 69.8 °F 88% 29.89 in 10.0 mi SE 6.9 mph - N/A   Overcast
8:21 AM 73.4 °F - 69.8 °F 88% 29.89 in 10.0 mi SSE 6.9 mph - N/A   Overcast
8:42 AM 73.4 °F - 69.8 °F 88% 29.89 in 10.0 mi SSE 9.2 mph - N/A   Overcast
9:02 AM 73.4 °F - 69.8 °F 88% 29.90 in 10.0 mi SSE 8.1 mph - N/A   Overcast
9:22 AM 73.4 °F - 69.8 °F 88% 29.90 in 10.0 mi SSE 6.9 mph - N/A   Overcast
9:42 AM 75.2 °F - 69.8 °F 83% 29.89 in 10.0 mi SSE 8.1 mph - N/A   Mostly Cloudy
10:01 AM 77.0 °F - 69.8 °F 78% 29.89 in 10.0 mi SSE 12.7 mph 17.3 mph N/A   Overcast
10:21 AM 78.8 °F - 69.8 °F 74% 29.89 in 10.0 mi SSE 10.4 mph - N/A   Mostly Cloudy
10:41 AM 78.8 °F - 69.8 °F 74% 29.89 in 10.0 mi SSE 11.5 mph - N/A   Mostly Cloudy
11:01 AM 77.0 °F - 69.8 °F 78% 29.89 in 10.0 mi SSE 6.9 mph - N/A   Mostly Cloudy
11:21 AM 78.8 °F - 69.8 °F 74% 29.89 in 10.0 mi South 12.7 mph - N/A   Scattered Clouds
11:43 AM 78.8 °F - 69.8 °F 74% 29.89 in 10.0 mi SSE 15.0 mph 19.6 mph N/A   Mostly Cloudy
12:01 PM 80.6 °F 83.9 °F 69.8 °F 70% 29.90 in 10.0 mi South 20.7 mph 24.2 mph N/A   Mostly Cloudy
12:21 PM 80.6 °F 83.9 °F 69.8 °F 70% 29.89 in 10.0 mi SSE 13.8 mph 17.3 mph N/A   Mostly Cloudy
12:41 PM 80.6 °F 83.9 °F 69.8 °F 70% 29.89 in 10.0 mi SSE 11.5 mph 17.3 mph N/A   Scattered Clouds
1:01 PM 80.6 °F 83.9 °F 69.8 °F 70% 29.88 in 10.0 mi SSE 15.0 mph 18.4 mph N/A   Scattered Clouds
1:21 PM 82.4 °F 85.4 °F 68.0 °F 62% 29.88 in 10.0 mi South 16.1 mph - N/A   Scattered Clouds
1:41 PM 82.4 °F 86.3 °F 69.8 °F 66% 29.87 in 10.0 mi South 15.0 mph 21.9 mph N/A   Scattered Clouds
2:01 PM 82.4 °F 85.4 °F 68.0 °F 62% 29.86 in 10.0 mi South 15.0 mph 19.6 mph N/A   Scattered Clouds
2:21 PM 82.4 °F 84.6 °F 66.2 °F 58% 29.85 in 10.0 mi South 15.0 mph 21.9 mph N/A   Scattered Clouds
2:41 PM 84.2 °F 86.6 °F 66.2 °F 55% 29.85 in 10.0 mi South 13.8 mph 20.7 mph N/A   Scattered Clouds
3:01 PM 82.4 °F 85.4 °F 68.0 °F 62% 29.84 in 10.0 mi South 15.0 mph 19.6 mph N/A   Scattered Clouds
3:21 PM 84.2 °F 87.3 °F 68.0 °F 58% 29.83 in 10.0 mi South 9.2 mph 17.3 mph N/A   Clear
3:41 PM 86.0 °F 88.2 °F 66.2 °F 51% 29.82 in 10.0 mi South 13.8 mph - N/A   Clear
4:01 PM 86.0 °F 89.4 °F 68.0 °F 55% 29.81 in 10.0 mi South 16.1 mph 20.7 mph N/A   Clear
4:21 PM 86.0 °F 88.2 °F 66.2 °F 51% 29.80 in 10.0 mi South 13.8 mph 20.7 mph N/A   Clear
4:41 PM 87.8 °F 90.4 °F 66.2 °F 49% 29.79 in 10.0 mi SSE 17.3 mph - N/A   Scattered Clouds
5:01 PM 86.0 °F 88.2 °F 66.2 °F 51% 29.79 in 10.0 mi SSE 15.0 mph - N/A   Scattered Clouds
5:21 PM 87.8 °F 90.4 °F 66.2 °F 49% 29.79 in 10.0 mi SSE 10.4 mph - N/A   Clear
5:41 PM 86.0 °F 88.2 °F 66.2 °F 51% 29.79 in 10.0 mi South 12.7 mph - N/A   Clear
6:01 PM 87.8 °F 91.4 °F 68.0 °F 52% 29.78 in 10.0 mi SSE 11.5 mph - N/A   Scattered Clouds
6:21 PM 86.0 °F 88.2 °F 66.2 °F 51% 29.77 in 10.0 mi SSE 10.4 mph - N/A   Scattered Clouds
6:41 PM 84.2 °F 87.3 °F 68.0 °F 58% 29.77 in 10.0 mi SSE 10.4 mph - N/A   Clear
7:01 PM 84.2 °F 87.3 °F 68.0 °F 58% 29.77 in 10.0 mi SE 8.1 mph - N/A   Scattered Clouds
7:21 PM 82.4 °F 86.3 °F 69.8 °F 66% 29.77 in 10.0 mi SSE 6.9 mph - N/A   Scattered Clouds
7:41 PM 80.6 °F 83.9 °F 69.8 °F 70% 29.77 in 10.0 mi SE 8.1 mph - N/A   Scattered Clouds
8:01 PM 80.6 °F 83.9 °F 69.8 °F 70% 29.77 in 10.0 mi SE 9.2 mph - N/A   Scattered Clouds
8:21 PM 78.8 °F - 69.8 °F 74% 29.77 in 10.0 mi SE 10.4 mph - N/A   Clear
8:41 PM 78.8 °F - 68.0 °F 69% 29.79 in 10.0 mi SE 8.1 mph - N/A   Clear
9:01 PM 78.8 °F - 68.0 °F 69% 29.79 in 10.0 mi SE 10.4 mph - N/A   Scattered Clouds
9:21 PM 78.8 °F - 68.0 °F 69% 29.79 in 10.0 mi SE 12.7 mph 18.4 mph N/A   Scattered Clouds
9:41 PM 78.8 °F - 69.8 °F 74% 29.81 in 10.0 mi SE 12.7 mph 19.6 mph N/A   Scattered Clouds
10:01 PM 78.8 °F - 69.8 °F 74% 29.81 in 10.0 mi SE 11.5 mph 18.4 mph N/A   Scattered Clouds
10:21 PM 78.8 °F - 69.8 °F 74% 29.81 in 10.0 mi SE 15.0 mph - N/A   Clear
10:41 PM 77.0 °F - 69.8 °F 78% 29.81 in 10.0 mi SE 11.5 mph 16.1 mph N/A   Clear
11:01 PM 77.0 °F - 69.8 °F 78% 29.81 in 10.0 mi SE 11.5 mph 17.3 mph N/A   Clear
11:21 PM 77.0 °F - 69.8 °F 78% 29.82 in 10.0 mi SSE 11.5 mph - N/A   Clear